Location: Firnhaberau
(48.4049°N, 10.8963°E)
Time: 08:04:07
(UTC+00:00)

Cosmos 2227 Rocket - Pass Details

Date: 07 June 2020
Orbit: 838 x 846 km, 71.0° (Epoch: 07 July)

Event Time Altitude Azimuth Distance (km) Brightness Sun altitude
Rises 00:00:45 0° 324° (NW) 3,418 6.0 -18.1°
Reaches altitude 10° 00:03:28 10° 314° (NW) 2,478 5.0 -18.0°
Maximum altitude 00:08:17 29° 256° (WSW) 1,503 3.3 -17.8°
Enters shadow 00:10:02 25° 226° (SW) 1,661 3.3 -17.8°
